Regional Weather Roundup
Issued by NWS

Home | Current Version | Previous Version | Text Only | Print | Product List | Glossary Off
Versions: 1 2 3 4 5 6 7 8 9 10 11 12 13 14 15 16 17 18 19 20 21 22 23 24 25 26 27 28 29 30 31 32 33 34 35 36 37 38 39 40 41 42 43 44 45 46 47 48 49 50

000
ASUS43 KLSX 171407
RWRMO

WEATHER SUMMARY FOR MISSOURI
NATIONAL WEATHER SERVICE SPRINGFIELD MO
800 AM CST WED DEC 17 2014

NOTE: "FAIR" INDICATES FEW OR NO CLOUDS BELOW 12,000 FEET WITH NO
       SIGNIFICANT WEATHER AND/OR OBSTRUCTIONS TO VISIBILITY.
       CURRENT SKY AND/OR WEATHER CONDITIONS ARE NOT AVAILABLE FOR
       CHILLICOTHE AND FARMINGTON.

MOZ001>031-035>038-043-044-053-054-171500-
...NORTHERN AND WESTERN MISSOURI...

CITY           SKY/WX    TMP DP  RH WIND       PRES   REMARKS
KANSAS CTY INT CLOUDY    23  17  78 N3        30.34S
KANSAS C DTWN  MOCLDY    25  18  74 CALM      30.36S
LEE`S SUMMIT   PTCLDY    23  18  81 NE3       30.34R
ST JOSEPH      CLOUDY    22  16  78 N8        30.36F WCI  12
CHILLICOTHE      N/A     22  17  81 NW3       30.37R
KIRKSVILLE     CLOUDY    23  19  85 NW7       30.34R WCI  15

$$
MOZ066>068-077>081-088>096-101>105-171500-
...SOUTHWEST MISSOURI...

CITY           SKY/WX    TMP DP  RH WIND       PRES   REMARKS
SPRINGFIELD    PTCLDY    25  22  88 NE5       30.29F WCI  19
JOPLIN         MOCLDY    28  24  85 CALM      30.33R

$$
MOZ032>034-039>042-045>050-055>058-069>072-171500-
...CENTRAL MISSOURI...

CITY           SKY/WX    TMP DP  RH WIND       PRES   REMARKS
COLUMBIA       MOCLDY    24  21  88 W3        30.33S
JEFFERSON CITY PTCLDY    26  21  81 NW3       30.36S
ROLLA          PTCLDY    24  20  84 NW5       30.30R WCI  18
SEDALIA        PTCLDY    25  20  81 NW3       30.35S
WHITEMAN AFB   PTCLDY    22  19  87 NE2       30.34F
WARRENSBURG    PTCLDY    23  19  86 CALM      30.36R
OSAGE BEACH    PTCLDY    25  19  80 CALM      30.34S

$$
MOZ051-052-059>065-171500-
...EAST CENTRAL MISSOURI...

CITY           SKY/WX    TMP DP  RH WIND       PRES   REMARKS
ST LOUIS INTL  MOCLDY    31  23  72 W6        30.32F WCI  25
SPIRIT OF STL  MOCLDY    30  23  75 W3        30.33S

$$
MOZ072>076-082>087-097>100-106>115-171500-
...SOUTH CENTRAL AND SOUTHEAST MISSOURI...

CITY           SKY/WX    TMP DP  RH WIND       PRES   REMARKS
CAPE GIRARDEAU CLOUDY    31  24  75 N8        30.34S WCI  23
FARMINGTON     CLOUDY    27  21  80 W6        30.32R WCI  20
POPLAR BLUFF   PTCLDY    30  23  75 CALM      30.34R
WEST PLAINS    PTCLDY    26  22  84 CALM      30.30R

$$



USA.gov is the U.S. government's official web portal to all federal, state and local government web resources and services.